Terminal Aerodrome Forecast
Issued by NWS

Home | Current Version | Previous Version | Text Only | Print | Product List | Glossary On
Versions: 1 2 3 4 5 6 7 8 9 10 11 12 13 14 15 16 17 18 19 20 21 22 23 24 25 26 27 28 29 30 31 32 33 34 35 36 37 38 39 40
000
FTUS45 KSLC 201740
TAF36U
TAF
K36U 201740Z 2018/2118 00000KT 4SM BR SCT005 BKN025
     FM201830 20006KT P6SM SCT010 BKN040
     FM210400 13006KT 2SM -SHSN SCT009 BKN025=

USA.gov is the U.S. government's official web portal to all federal, state and local government web resources and services.